DSP F8

operational
NORAD ID: 11397 Int'l Des: 1979-053 Owner: SAMSO Country: US
HEOCIRCULAR

About DSP F8

Description loading...

Live Position

Loading 3D Globe...

Upcoming Passes

Altitude History

Altitude vs Time

uPlot chart will show altitude changes over time

Two-Line Element Set

1 11397U 79053A 26102.90538116 -.00000269 00000-0 00000-0 0 9997
2 11397 7.3709 297.4046 0008925 307.0669 74.1652 0.98749863 25349
Epoch: Apr 12, 2026 • Age: 10 hours

Current Status

Altitude 36243.9 km
Velocity 3.06 km/s
Sub-Earth Point 0.74°N, 149.23°E
Launch Date Jun 10, 1979
Age 46.8 years
Type military

Technical Details

Classification Payload
Mass 1180.00 kg
Dry Mass 1050.00 kg
Total Mass 1180.00 kg
Length 7.00 m
Diameter 2.80 m
Span 7.70 m
Shape Cyl + 4 Pan
Manufacturer TRW
Bus Type DSP MOS/PIM
Phase Status Unknown Transfer Status
Owner/State SAMSO/US

Large Constellations

Loading constellations...